Time,TemperatureF,DewpointF,PressureIn,WindDirection,WindDirectionDegrees,WindSpeedMPH,WindSpeedGustMPH,Humidity,HourlyPrecipIn,Conditions,Clouds,dailyrainin,SoftwareType,DateUTC
2013-02-24 00:00:00,32.1,25.4,29.94,West,269,1.0,1.0,76,0.00,,,0.00,Wunderground v.1.15,2013-02-24 05:00:00,
2013-02-24 00:30:00,31.0,24.9,29.95,WSW,240,0.0,0.0,78,0.00,,,0.00,Wunderground v.1.15,2013-02-24 05:30:00,
2013-02-24 01:00:00,29.5,24.4,29.95,SW,231,0.0,0.0,81,0.00,,,0.00,Wunderground v.1.15,2013-02-24 06:00:00,
2013-02-24 01:30:00,28.2,24.0,29.96,WSW,238,0.0,0.0,84,0.00,,,0.00,Wunderground v.1.15,2013-02-24 06:30:00,
2013-02-24 02:00:00,27.6,23.4,29.97,NW,309,0.0,0.0,84,0.00,,,0.00,Wunderground v.1.15,2013-02-24 07:00:00,
2013-02-24 02:30:00,-999.9,-99.9,29.99,North,32767,-999.0,0.0,255,-99.99,,,0.00,Wunderground v.1.15,2013-02-24 07:30:00,
2013-02-24 03:00:00,-999.9,-99.9,29.97,North,32767,-999.0,0.0,255,-99.99,,,0.00,Wunderground v.1.15,2013-02-24 08:00:00,
2013-02-24 03:30:00,-999.9,-99.9,29.98,North,32767,-999.0,0.0,255,-99.99,,,0.00,Wunderground v.1.15,2013-02-24 08:30:00,
2013-02-24 04:00:00,-999.9,-99.9,29.99,North,32767,-999.0,0.0,255,-99.99,,,0.00,Wunderground v.1.15,2013-02-24 09:00:00,
2013-02-24 04:30:00,-999.9,-99.9,29.98,North,32767,-999.0,0.0,255,-99.99,,,0.00,Wunderground v.1.15,2013-02-24 09:30:00,
2013-02-24 05:00:00,-999.9,-99.9,30.00,North,32767,-999.0,0.0,255,-99.99,,,0.00,Wunderground v.1.15,2013-02-24 10:00:00,
2013-02-24 05:30:00,-999.9,-99.9,30.02,North,32767,-999.0,0.0,255,-99.99,,,0.00,Wunderground v.1.15,2013-02-24 10:30:00,
2013-02-24 06:00:00,26.5,22.6,30.04,NW,314,3.0,3.0,85,0.00,,,0.00,Wunderground v.1.15,2013-02-24 11:00:00,
2013-02-24 06:30:00,25.8,21.9,30.05,NW,323,2.0,2.0,85,0.00,,,0.00,Wunderground v.1.15,2013-02-24 11:30:00,
2013-02-24 07:00:00,-999.9,-99.9,30.05,North,32767,-999.0,0.0,255,-99.99,,,0.00,Wunderground v.1.15,2013-02-24 12:00:00,
2013-02-24 07:30:00,-999.9,-99.9,30.06,North,32767,-999.0,0.0,255,-99.99,,,0.00,Wunderground v.1.15,2013-02-24 12:30:00,
2013-02-24 08:00:00,-999.9,-99.9,30.07,North,32767,-999.0,0.0,255,-99.99,,,0.00,Wunderground v.1.15,2013-02-24 13:00:00,
2013-02-24 08:30:00,-999.9,-99.9,30.09,North,32767,-999.0,0.0,255,-99.99,,,0.00,Wunderground v.1.15,2013-02-24 13:30:00,
2013-02-24 09:00:00,27.4,22.9,30.10,NW,305,2.0,4.0,83,0.00,,,0.00,Wunderground v.1.15,2013-02-24 14:00:00,
2013-02-24 09:30:00,28.2,23.1,30.11,NNW,344,2.0,2.0,81,0.00,,,0.00,Wunderground v.1.15,2013-02-24 14:30:00,
2013-02-24 10:00:00,29.7,24.0,30.11,ENE,71,2.0,2.0,79,0.00,,,0.00,Wunderground v.1.15,2013-02-24 15:00:00,
2013-02-24 10:30:00,30.0,23.7,30.11,North,6,2.0,2.0,77,0.00,,,0.00,Wunderground v.1.15,2013-02-24 15:30:00,
2013-02-24 11:00:00,31.6,23.6,30.12,North,349,2.0,2.0,72,0.00,,,0.00,Wunderground v.1.15,2013-02-24 16:00:00,
2013-02-24 11:30:00,32.6,23.9,30.12,WNW,285,2.0,2.0,70,0.00,,,0.00,Wunderground v.1.15,2013-02-24 16:30:00,
2013-02-24 12:00:00,36.5,26.2,30.13,WSW,242,1.0,6.0,66,0.00,,,0.00,Wunderground v.1.15,2013-02-24 17:00:00,
2013-02-24 12:30:00,36.7,25.3,30.12,West,259,3.0,3.0,63,0.00,,,0.00,Wunderground v.1.15,2013-02-24 17:30:00,
2013-02-24 13:00:00,37.4,25.2,30.11,SSW,197,3.0,3.0,61,0.00,,,0.00,Wunderground v.1.15,2013-02-24 18:00:00,
2013-02-24 13:30:00,39.5,26.3,30.10,WNW,285,2.0,3.0,59,0.00,,,0.00,Wunderground v.1.15,2013-02-24 18:30:00,
2013-02-24 14:00:00,40.4,26.8,30.09,NNW,336,2.0,2.0,58,0.00,,,0.00,Wunderground v.1.15,2013-02-24 19:00:00,
2013-02-24 14:30:00,40.9,26.4,30.09,NW,323,4.0,5.0,56,0.00,,,0.00,Wunderground v.1.15,2013-02-24 19:30:00,
2013-02-24 15:00:00,41.6,26.6,30.09,WSW,256,3.0,4.0,55,0.00,,,0.00,Wunderground v.1.15,2013-02-24 20:00:00,
2013-02-24 15:30:00,42.5,26.1,30.08,NNE,20,4.0,4.0,52,0.00,,,0.00,Wunderground v.1.15,2013-02-24 20:30:00,
2013-02-24 16:30:00,42.7,26.3,30.09,NNE,21,4.0,4.0,52,0.00,,,0.00,Wunderground v.1.15,2013-02-24 21:30:00,
2013-02-24 17:00:00,41.8,25.9,30.10,NNW,327,2.0,2.0,53,0.00,,,0.00,Wunderground v.1.15,2013-02-24 22:00:00,
2013-02-24 17:30:00,41.6,25.7,30.10,NE,44,3.0,3.0,53,0.00,,,0.00,Wunderground v.1.15,2013-02-24 22:30:00,
2013-02-24 18:00:00,40.4,25.9,30.10,NW,319,2.0,2.0,56,0.00,,,0.00,Wunderground v.1.15,2013-02-24 23:00:00,
2013-02-24 18:30:00,39.1,26.0,30.10,NW,311,0.0,0.0,59,0.00,,,0.00,Wunderground v.1.15,2013-02-24 23:30:00,
2013-02-24 19:00:00,37.5,25.7,30.10,NW,319,0.0,0.0,62,0.00,,,0.00,Wunderground v.1.15,2013-02-25 00:00:00,
2013-02-24 19:30:00,34.3,25.5,30.12,NW,319,0.0,0.0,70,0.00,,,0.00,Wunderground v.1.15,2013-02-25 00:30:00,
2013-02-24 20:00:00,33.4,25.3,30.13,NW,319,0.0,0.0,72,0.00,,,0.00,Wunderground v.1.15,2013-02-25 01:00:00,
2013-02-24 20:30:00,30.0,24.0,30.13,NW,319,0.0,0.0,78,0.00,,,0.00,Wunderground v.1.15,2013-02-25 01:30:00,
2013-02-24 21:00:00,29.2,24.4,30.14,NW,319,0.0,0.0,82,0.00,,,0.00,Wunderground v.1.15,2013-02-25 02:00:00,
2013-02-24 21:30:00,28.0,23.8,30.14,NW,319,0.0,0.0,84,0.00,,,0.00,Wunderground v.1.15,2013-02-25 02:30:00,
2013-02-24 22:00:00,27.5,23.9,30.14,NW,319,0.0,0.0,86,0.00,,,0.00,Wunderground v.1.15,2013-02-25 03:00:00,
2013-02-24 22:30:00,26.6,23.5,30.14,NW,319,0.0,0.0,88,0.00,,,0.00,Wunderground v.1.15,2013-02-25 03:30:00,
2013-02-24 23:00:00,26.0,23.2,30.14,NW,319,0.0,0.0,89,0.00,,,0.00,Wunderground v.1.15,2013-02-25 04:00:00,
2013-02-24 23:30:00,25.5,23.0,30.13,NW,319,0.0,0.0,90,0.00,,,0.00,Wunderground v.1.15,2013-02-25 04:30:00,